Location: Malcolm X Square
(37.7810°N, 122.4297°W)
Time: 23:48:46
(UTC+00:00)

Chandra Rocket (1) - Pass Details

Date: 13 April 2024
Orbit: 293 x 10893 km, 28.4° (Epoch: 21 May)

Event Time Altitude Azimuth Distance (km) Brightness Sun altitude
Exits shadow 12:29:52 15° 206° (SSW) 1,390 3.4 -13.4°
Maximum altitude 12:31:56 25° 158° (SSE) 1,349 3.8 -13.0°
Drops below altitude 10° 12:37:42 10° 106° (ESE) 3,448 6.7 -11.9°
Sets 12:43:42 0° 97° (E) 5,922 8.3 -10.8°
